Vorticity
11 17 15 21 13 -2 6 22 20 8 23 3 9 5 4 9 7 7 10 38 3 -13 9 -0 21 7 3 -1 2 6 4 5 8 12 12 14 16 16 13 9 9 10 13 12 10 10 6 8 7 8 6 5 8 8
12 33 -6 8 17 16 5 19 9 16 17 3 7 4 5 9 9 7 9 6 27 16 5 1 6 9 2 1 5 7 5 9 9 6 8 10 11 11 17 14 9 14 12 11 7 7 9 8 8 9 13 10 7 4
11 25 6 18 14 23 5 14 0 26 9 4 10 4 7 8 2 4 -0 44 63 30 17 -6 7 7 -2 1 10 2 9 6 9 18 12 11 5 7 11 16 10 12 13 11 5 10 9 12 8 12 14 7 5 4
19 11 -0 20 10 6 28 9 6 23 9 1 7 7 7 2 4 13 72 57 39 42 18 6 9 16 13 7 4 6 7 5 17 14 11 10 6 4 8 10 12 12 13 10 4 7 9 8 7 11 11 7 5 5
9 1 15 14 -0 22 27 8 24 16 5 9 8 6 4 9 23 65 59 50 43 13 13 14 13 12 26 13 10 9 3 4 9 18 7 5 6 7 10 11 7 12 14 11 6 9 7 -1 4 5 9 13 9 6
18 21 17 2 9 21 26 7 33 12 8 8 6 5 17 41 65 56 56 25 7 10 14 8 12 13 14 12 -1 4 9 6 19 15 7 -2 7 10 9 8 13 8 17 15 6 6 5 -0 -3 3 5 10 16 12
29 14 7 13 5 28 12 26 18 7 8 6 5 22 54 49 61 40 -1 8 5 13 19 12 2 14 11 4 6 8 8 17 18 16 13 9 12 17 15 11 13 8 18 16 9 7 3 4 3 1 3 8 13 16
16 6 -1 3 19 25 -3 37 7 8 6 4 17 48 32 21 10 3 2 4 9 11 10 10 13 11 10 7 7 12 18 10 4 12 13 11 14 9 13 8 17 11 14 18 11 8 5 4 4 2 2 10 11 12
13 -1 -4 7 10 26 36 17 10 3 5 12 26 55 1 1 9 9 11 12 17 13 8 3 4 9 23 18 7 19 9 7 6 8 13 17 15 13 13 18 18 14 12 21 11 10 7 2 3 5 6 8 7 10
7 8 9 -5 -2 28 36 9 4 6 5 18 58 2 4 0 7 10 4 5 -0 4 3 7 7 11 18 16 6 2 5 4 13 19 17 16 15 18 23 25 20 18 13 22 13 10 9 10 7 7 7 6 6 7
5 -20 18 9 5 36 27 5 4 8 6 41 15 5 4 2 9 4 3 11 12 8 -0 5 -2 12 27 24 15 9 8 2 13 2 14 13 14 8 19 19 19 18 22 23 12 6 5 4 7 9 7 8 7 7
1 3 20 20 20 46 19 5 5 9 16 22 4 -4 -7 -0 4 1 0 5 12 17 9 -1 4 1 -0 -3 20 27 19 13 9 13 16 18 14 11 14 16 16 21 22 21 17 4 6 7 3 11 9 8 7 12
8 12 12 12 29 44 16 5 4 9 18 11 9 2 -7 7 1 2 11 4 1 2 5 10 9 6 -4 -3 3 2 3 9 16 24 3 19 6 6 20 10 7 11 8 20 20 7 9 7 10 10 9 9 12 19
17 18 10 11 30 35 20 6 5 10 18 9 6 1 -17 13 -10 8 -5 -10 -3 -0 1 3 5 15 13 8 5 4 4 1 1 5 14 8 12 6 17 22 11 8 7 9 9 15 12 14 15 10 16 10 7 12
23 14 12 10 30 32 21 9 5 7 12 13 7 2 12 -6 8 -3 -7 -5 -2 -2 1 5 2 11 10 13 5 7 8 6 5 2 4 5 8 13 14 5 23 26 19 21 21 17 13 11 17 21 21 21 12 13
10 14 14 11 37 22 21 13 7 5 7 14 8 3 13 2 15 1 4 -6 -5 -2 1 3 11 4 11 8 9 10 11 8 6 4 5 7 6 5 5 7 10 8 9 19 13 2 15 15 12 5 -6 4 15 16
9 11 18 27 31 19 19 16 9 5 5 5 11 12 14 13 13 10 10 7 8 9 13 4 -0 2 5 1 2 0 1 2 3 5 5 5 5 7 6 4 4 6 8 9 8 7 8 13 13 9 11 12 10 -1
15 18 18 22 19 25 19 19 15 10 3 6 4 7 8 12 13 13 14 19 23 23 16 8 2 3 5 5 3 2 -1 -0 5 6 4 3 1 1 3 4 5 3 3 4 5 8 9 8 7 6 5 4 4 6
10 12 15 17 22 18 20 24 15 15 13 10 10 5 3 6 9 9 7 7 8 10 14 19 23 30 25 28 29 29 31 35 30 36 33 33 30 28 27 23 16 10 5 3 2 1 2 4 5 8 9 8 7 6
2 7 4 11 12 15 22 24 21 20 15 12 9 10 14 8 3 5 5 6 7 7 8 8 4 6 5 8 8 12 15 19 20 14 11 4 1 1 0 -2 0 8 17 22 25 30 29 21 8 4 6 5 3 4
26 18 11 1 11 10 10 13 19 21 25 17 16 16 10 10 11 11 11 5 3 6 11 9 8 7 7 5 6 3 3 4 4 6 9 11 11 10 11 12 12 12 13 14 16 17 14 1 6 27 37 28 12 5
7 8 16 19 12 2 10 15 9 12 12 16 18 19 16 13 12 10 7 8 17 8 5 2 2 9 12 11 7 7 7 5 6 5 4 4 4 4 4 3 4 5 9 11 9 9 11 13 16 21 19 7 -1 5
8 9 7 10 17 15 17 5 8 12 11 13 12 11 14 16 17 15 13 11 13 12 11 13 20 13 2 7 11 9 7 5 7 7 6 6 5 5 7 8 6 5 7 9 12 11 12 12 13 14 14 14 16 18
3 9 9 7 4 10 23 16 13 5 12 12 13 15 12 12 12 15 19 16 10 8 11 12 10 11 13 22 13 1 1 5 9 10 10 8 7 8 9 7 7 7 8 8 9 9 8 7 8 12 16 17 16 16
2 5 9 13 11 2 4 22 16 15 12 7 11 15 14 12 9 12 13 13 15 16 15 11 9 13 15 10 9 12 16 12 10 10 10 11 10 10 8 7 8 10 9 4 3 7 9 12 11 11 10 12 13 15
1 2 7 7 6 9 13 7 23 9 11 12 17 12 13 15 17 17 14 14 13 11 10 11 12 9 11 12 12 12 13 11 10 10 10 10 9 8 8 9 9 8 5 7 7 7 11 15 14 9 10 19 18 21
-2 2 7 6 9 7 7 11 16 19 6 10 13 15 14 16 14 12 11 15 16 14 13 13 11 12 15 15 14 11 10 11 11 9 9 9 9 11 12 9 5 5 7 6 7 10 13 13 12 12 17 16 13 16
4 10 9 5 6 2 10 11 8 22 9 10 12 15 14 13 12 15 13 13 12 13 14 14 14 15 14 11 10 11 12 13 11 10 9 9 9 9 6 6 7 9 10 9 8 6 8 13 17 17 16 16 18 18
20 21 5 -0 3 14 7 7 5 17 19 11 6 13 16 13 11 11 12 11 10 8 9 12 14 14 13 12 11 11 13 12 10 9 9 9 8 6 7 7 3 5 9 11 16 16 15 17 18 21 23 26 26 25
8 -3 1 -1 2 16 1 9 14 10 14 16 9 7 14 14 15 13 11 10 11 10 13 14 14 14 13 13 13 14 10 8 8 9 9 8 8 7 6 6 8 11 14 12 13 20 24 31 35 32 30 29 30 28
26 25 22 15 23 29 16 19 13 10 11 15 15 4 9 11 10 12 12 14 15 15 15 13 13 14 13 13 11 9 8 10 11 9 10 7 5 6 8 11 14 8 12 23 29 29 28 25 35 24 27 30 30 26
35 44 39 35 35 25 21 14 7 11 14 13 11 7 11 12 11 12 11 15 17 16 16 14 13 14 12 9 8 10 10 9 10 7 5 6 7 13 14 7 12 26 33 36 31 24 12 37 28 25 31 28 25 28
40 36 31 32 27 17 10 5 7 11 10 12 9 11 16 13 12 15 12 12 17 14 15 15 12 9 8 9 9 9 10 8 6 6 9 13 13 7 14 24 37 39 27 19 10 17 31 49 27 21 21 25 30 25
Height
5606 5602 5601 5600 5598 5595 5592 5589 5587 5585 5584 5585 5583 5580 5579 5577 5576 5575 5575 5576 5577 5579 5582 5585 5588 5591 5593 5594 5596 5598 5599 5600 5601 5602 5603 5605 5607 5609 5611 5612 5613 5616 5618 5620 5623 5624 5627 5628 5630 5631 5631 5630 5630 5631
5596 5594 5593 5591 5589 5586 5583 5581 5579 5577 5576 5576 5575 5571 5569 5566 5564 5562 5560 5562 5565 5567 5572 5576 5581 5585 5589 5591 5593 5594 5596 5597 5599 5600 5601 5602 5603 5605 5607 5608 5610 5614 5615 5618 5620 5622 5624 5625 5627 5627 5628 5628 5629 5629
5587 5586 5584 5582 5579 5576 5574 5572 5571 5568 5568 5567 5566 5563 5559 5554 5549 5544 5539 5538 5540 5547 5558 5568 5574 5579 5583 5587 5589 5592 5592 5594 5595 5596 5597 5599 5600 5602 5603 5605 5607 5609 5611 5614 5617 5619 5620 5622 5624 5625 5625 5626 5626 5626
5578 5578 5576 5573 5569 5567 5565 5563 5563 5561 5561 5560 5558 5554 5549 5542 5533 5523 5516 5517 5525 5539 5552 5562 5568 5573 5578 5582 5585 5587 5589 5590 5591 5592 5594 5595 5597 5598 5599 5601 5603 5606 5608 5610 5613 5615 5617 5620 5622 5623 5623 5623 5623 5623
5570 5569 5566 5564 5562 5559 5556 5555 5554 5554 5554 5553 5550 5546 5539 5528 5515 5504 5502 5508 5523 5539 5549 5558 5563 5569 5573 5577 5581 5583 5585 5586 5587 5588 5590 5592 5593 5594 5595 5597 5599 5599 5602 5605 5608 5612 5615 5617 5618 5619 5619 5619 5619 5620
5560 5559 5557 5555 5553 5549 5548 5548 5547 5548 5549 5547 5544 5539 5529 5516 5504 5502 5504 5517 5529 5539 5549 5555 5562 5566 5570 5574 5577 5580 5581 5582 5582 5583 5585 5587 5588 5590 5591 5592 5591 5594 5598 5602 5606 5608 5610 5612 5614 5615 5616 5616 5616 5616
5551 5550 5549 5548 5545 5542 5541 5542 5542 5543 5543 5542 5539 5532 5522 5511 5508 5513 5518 5526 5534 5542 5549 5555 5560 5565 5568 5571 5574 5576 5577 5577 5578 5579 5580 5581 5583 5583 5584 5585 5586 5590 5593 5596 5600 5603 5606 5608 5610 5611 5612 5612 5611 5611
5542 5541 5541 5540 5538 5534 5535 5535 5537 5539 5538 5538 5535 5529 5522 5519 5521 5526 5529 5533 5539 5545 5550 5556 5560 5563 5566 5568 5570 5571 5572 5573 5574 5574 5575 5575 5576 5577 5577 5580 5580 5583 5587 5590 5595 5598 5601 5603 5605 5607 5607 5607 5607 5607
5534 5534 5533 5533 5530 5528 5529 5531 5532 5534 5535 5535 5532 5531 5528 5528 5530 5534 5536 5539 5544 5550 5553 5557 5560 5562 5563 5565 5567 5568 5569 5570 5571 5570 5570 5570 5570 5570 5571 5572 5574 5577 5581 5584 5589 5593 5596 5598 5600 5601 5602 5603 5602 5602
5524 5524 5524 5524 5523 5522 5523 5526 5528 5529 5531 5531 5531 5533 5532 5534 5535 5538 5542 5545 5548 5552 5555 5557 5559 5560 5562 5563 5565 5567 5567 5567 5567 5566 5565 5564 5565 5565 5567 5568 5570 5572 5575 5579 5583 5586 5590 5592 5594 5596 5597 5597 5597 5598
5515 5515 5515 5515 5515 5515 5517 5520 5523 5525 5527 5529 5532 5534 5535 5537 5539 5541 5544 5547 5550 5553 5555 5557 5558 5559 5561 5562 5563 5564 5564 5564 5564 5564 5563 5561 5562 5563 5564 5564 5565 5567 5570 5573 5576 5580 5584 5586 5588 5590 5590 5591 5592 5592
5506 5506 5505 5505 5506 5507 5511 5514 5518 5521 5523 5527 5530 5532 5534 5536 5539 5542 5544 5547 5550 5552 5554 5556 5558 5559 5560 5561 5561 5561 5562 5563 5563 5562 5560 5559 5560 5560 5561 5561 5562 5564 5566 5568 5572 5575 5578 5580 5582 5583 5584 5585 5585 5585
5495 5497 5497 5496 5497 5499 5504 5508 5512 5516 5519 5523 5526 5529 5532 5535 5538 5541 5544 5547 5549 5551 5553 5554 5556 5557 5559 5560 5560 5560 5561 5561 5561 5560 5559 5558 5558 5558 5558 5559 5561 5562 5564 5565 5568 5571 5573 5574 5576 5576 5577 5577 5578 5578
5485 5487 5488 5489 5489 5492 5498 5502 5506 5510 5514 5519 5522 5526 5528 5530 5535 5540 5542 5544 5547 5548 5550 5551 5553 5554 5555 5556 5557 5558 5559 5559 5559 5559 5559 5558 5558 5558 5557 5556 5558 5559 5561 5562 5564 5566 5568 5568 5569 5570 5570 5571 5571 5572
5477 5478 5479 5480 5481 5484 5490 5496 5500 5504 5508 5513 5517 5520 5523 5528 5532 5536 5538 5540 5542 5543 5546 5548 5549 5550 5551 5552 5553 5554 5555 5556 5556 5557 5556 5556 5556 5556 5556 5556 5556 5557 5557 5558 5559 5560 5561 5562 5563 5563 5564 5565 5565 5566
5469 5470 5472 5473 5473 5476 5483 5489 5493 5498 5502 5507 5511 5515 5519 5523 5527 5530 5532 5535 5537 5538 5540 5542 5544 5545 5546 5547 5549 5550 5551 5552 5552 5552 5553 5553 5552 5552 5552 5553 5553 5554 5554 5555 5555 5556 5557 5558 5558 5558 5558 5560 5562 5563
5462 5464 5465 5465 5466 5470 5476 5483 5488 5491 5496 5500 5506 5509 5513 5516 5519 5522 5525 5527 5530 5532 5534 5535 5538 5539 5541 5541 5544 5545 5546 5546 5546 5547 5547 5547 5548 5548 5548 5549 5549 5549 5550 5551 5551 5552 5552 5552 5553 5554 5555 5555 5556 5557
5457 5459 5460 5461 5463 5465 5470 5475 5481 5486 5490 5495 5499 5502 5505 5509 5512 5514 5517 5519 5522 5523 5525 5527 5530 5530 5532 5534 5538 5537 5536 5537 5538 5539 5540 5540 5541 5542 5542 5543 5543 5544 5544 5545 5545 5545 5546 5546 5547 5547 5548 5548 5548 5549
5453 5456 5458 5459 5460 5462 5465 5469 5474 5479 5484 5488 5492 5495 5499 5502 5505 5508 5510 5512 5515 5516 5518 5520 5521 5523 5522 5523 5525 5526 5528 5528 5529 5530 5530 5531 5532 5533 5533 5533 5534 5535 5536 5536 5537 5537 5537 5538 5538 5539 5539 5539 5539 5539
5450 5452 5454 5456 5457 5459 5461 5465 5468 5472 5476 5480 5483 5487 5491 5494 5498 5500 5503 5505 5508 5510 5513 5516 5517 5517 5518 5519 5520 5521 5521 5522 5522 5523 5524 5525 5525 5525 5526 5526 5526 5526 5525 5526 5526 5526 5526 5526 5527 5528 5528 5529 5529 5529
5445 5447 5450 5452 5454 5457 5458 5460 5462 5465 5468 5472 5476 5479 5483 5485 5488 5492 5495 5497 5500 5505 5507 5508 5508 5511 5512 5513 5514 5515 5515 5516 5516 5517 5517 5518 5518 5518 5518 5518 5518 5518 5517 5517 5516 5515 5516 5515 5514 5514 5514 5514 5515 5516
5441 5443 5445 5447 5450 5452 5454 5456 5458 5460 5463 5465 5469 5471 5474 5478 5481 5484 5486 5489 5493 5495 5496 5498 5500 5503 5505 5506 5507 5508 5509 5509 5509 5510 5510 5509 5509 5510 5509 5509 5509 5508 5507 5506 5506 5505 5504 5503 5503 5502 5501 5501 5501 5500
5436 5439 5441 5443 5446 5447 5450 5451 5452 5454 5457 5459 5462 5464 5467 5470 5473 5475 5478 5482 5484 5484 5487 5489 5491 5494 5495 5497 5499 5500 5500 5501 5501 5501 5502 5501 5501 5500 5499 5499 5499 5497 5496 5495 5494 5493 5491 5490 5489 5489 5487 5486 5486 5486
5430 5433 5435 5439 5441 5443 5444 5444 5446 5449 5451 5453 5455 5457 5461 5462 5465 5467 5470 5472 5472 5475 5478 5480 5482 5483 5485 5487 5488 5489 5490 5491 5491 5491 5491 5491 5490 5489 5489 5488 5487 5486 5485 5483 5481 5479 5478 5476 5475 5474 5473 5471 5471 5470
5423 5426 5430 5433 5435 5437 5438 5439 5440 5442 5445 5446 5449 5451 5453 5454 5457 5460 5462 5462 5464 5467 5469 5471 5472 5473 5475 5476 5476 5477 5479 5479 5480 5479 5479 5479 5478 5478 5477 5475 5473 5472 5472 5471 5468 5465 5463 5461 5459 5458 5457 5455 5454 5454
5413 5417 5423 5426 5428 5430 5432 5434 5434 5436 5438 5439 5441 5443 5444 5446 5449 5452 5452 5453 5455 5457 5459 5460 5462 5462 5463 5465 5466 5467 5467 5467 5468 5467 5467 5467 5466 5465 5464 5462 5459 5456 5456 5455 5453 5450 5447 5444 5442 5440 5439 5438 5437 5437
5404 5409 5414 5418 5420 5422 5424 5426 5427 5429 5430 5432 5433 5434 5436 5439 5441 5443 5443 5445 5446 5447 5449 5450 5451 5451 5453 5454 5456 5456 5456 5456 5456 5456 5455 5454 5453 5452 5451 5449 5446 5442 5439 5436 5433 5431 5428 5425 5423 5421 5419 5418 5418 5418
5395 5399 5404 5408 5409 5413 5415 5418 5420 5421 5422 5424 5425 5426 5428 5430 5432 5433 5436 5436 5437 5438 5439 5440 5441 5442 5443 5444 5444 5444 5445 5445 5444 5443 5442 5440 5438 5437 5436 5433 5429 5426 5422 5417 5414 5410 5407 5404 5401 5398 5397 5396 5396 5396
5381 5387 5392 5393 5397 5401 5405 5409 5411 5412 5413 5415 5418 5419 5421 5421 5423 5425 5427 5428 5428 5428 5430 5431 5432 5433 5433 5433 5433 5434 5434 5434 5433 5432 5430 5427 5424 5421 5419 5415 5412 5407 5403 5398 5392 5388 5384 5380 5377 5374 5372 5372 5372 5373
5365 5369 5372 5378 5383 5389 5395 5398 5402 5402 5404 5407 5409 5411 5412 5413 5414 5416 5418 5419 5419 5420 5422 5423 5423 5424 5424 5424 5424 5424 5423 5422 5421 5420 5417 5414 5410 5405 5401 5396 5391 5386 5381 5375 5370 5363 5358 5355 5352 5348 5347 5348 5349 5351
5342 5345 5352 5360 5369 5377 5382 5387 5390 5392 5396 5398 5400 5403 5403 5405 5406 5408 5409 5410 5411 5413 5414 5414 5415 5415 5415 5415 5415 5414 5413 5412 5410 5407 5404 5399 5395 5389 5383 5377 5372 5366 5359 5352 5346 5340 5336 5333 5331 5329 5329 5329 5330 5334
5323 5327 5336 5345 5354 5362 5369 5374 5378 5383 5387 5390 5392 5394 5395 5396 5398 5400 5401 5402 5404 5406 5406 5406 5406 5407 5407 5406 5406 5404 5402 5400 5397 5393 5389 5384 5378 5372 5366 5359 5351 5345 5337 5331 5326 5322 5319 5316 5315 5315 5315 5316 5319 5323
5314 5318 5325 5334 5343 5352 5359 5365 5370 5375 5379 5382 5384 5385 5388 5389 5391 5394 5393 5394 5397 5398 5398 5399 5399 5399 5399 5398 5397 5394 5391 5388 5384 5379 5374 5368 5362 5355 5347 5339 5331 5324 5319 5316 5312 5308 5304 5302 5303 5305 5307 5309 5312 5316